SCP
0 0 0 0 0 0 1 1 1 1 1 1 1 1 1 1 0 0 0 0 0 0 0 0 0 0 0 0 0 0 0 0 0 0 0 0 0 0 0 0 0 0 0
0 0 0 0 0 0 0 1 1 1 1 1 1 1 1 1 0 0 0 0 0 0 0 0 0 0 0 0 0 0 0 0 0 0 0 0 0 0 0 0 0 0 0
0 0 0 0 0 0 0 0 1 1 2 2 2 2 1 1 0 0 0 0 0 0 0 0 0 0 0 0 0 0 0 0 0 0 0 0 0 0 0 0 0 0 0
0 0 0 0 0 0 0 0 1 2 2 2 2 2 1 1 0 0 0 0 0 0 0 0 0 0 0 0 0 0 0 0 0 0 0 0 0 0 0 0 0 0 0
0 0 0 0 0 0 0 0 1 2 2 2 2 2 1 1 0 0 0 0 0 0 0 0 0 0 0 0 0 0 0 0 0 0 0 0 0 0 0 0 0 0 0
0 0 0 0 0 0 0 0 1 1 2 2 2 2 1 0 0 0 0 0 0 0 0 0 0 0 0 0 0 0 0 0 0 0 0 0 0 0 0 0 0 0 0
0 0 0 0 0 0 0 0 1 1 1 1 2 1 1 0 0 0 0 0 0 0 0 0 0 0 0 0 0 0 0 0 0 0 0 0 0 0 0 0 0 0 0
0 0 0 0 0 0 0 0 0 1 1 1 1 1 0 0 0 0 0 0 0 0 0 0 0 0 0 0 0 0 0 0 0 0 0 0 0 0 0 0 0 0 0
0 0 0 0 0 0 0 0 0 0 0 0 0 0 0 0 0 0 0 0 0 0 0 0 0 0 0 0 0 0 0 0 0 0 0 0 0 0 0 0 0 0 0
0 0 0 0 0 0 0 0 0 0 0 0 0 0 0 0 0 0 0 0 0 0 0 0 0 0 0 0 0 0 0 0 0 0 0 0 0 0 0 0 0 0 0
0 0 0 0 0 0 0 0 0 0 0 0 0 0 0 0 0 0 0 0 0 0 0 0 0 0 0 0 0 0 0 0 0 0 0 0 0 0 0 0 0 0 0
0 0 0 0 0 0 0 0 0 0 0 0 0 0 0 0 0 0 0 0 0 0 0 0 0 0 0 0 0 0 0 0 0 0 0 0 0 0 0 0 0 0 0
0 0 0 0 0 0 0 0 0 0 0 0 0 0 0 0 0 0 0 0 0 0 0 0 0 0 0 0 0 0 0 0 0 0 0 0 0 0 0 0 0 0 0
0 0 0 0 0 0 0 0 0 0 0 0 0 0 0 0 0 0 0 0 0 0 0 0 0 0 0 0 0 0 0 0 0 0 0 0 0 0 0 0 0 0 0
0 0 0 0 0 0 0 0 0 0 0 0 0 0 0 0 0 0 0 0 0 0 0 0 0 0 0 0 0 0 0 0 0 0 0 0 0 0 0 0 0 0 0
0 0 0 0 0 0 0 0 0 0 0 0 0 0 0 0 0 0 0 0 0 0 0 0 0 0 0 0 0 0 0 0 0 0 0 0 0 0 0 0 0 0 0
0 0 0 0 0 0 0 0 0 0 0 0 0 0 0 0 0 0 0 0 0 0 0 0 0 0 0 0 0 0 0 0 0 0 0 0 0 0 0 0 0 0 0
0 0 0 0 0 0 0 0 0 0 0 0 0 0 0 0 0 0 0 0 0 0 0 0 0 0 0 0 0 0 0 0 0 0 0 0 0 0 0 0 0 0 0
0 0 0 0 0 0 0 0 0 0 0 0 0 0 0 0 0 0 0 0 0 0 0 0 0 0 0 0 0 0 0 0 0 0 0 0 0 0 0 0 0 0 0
0 0 0 0 0 0 0 0 0 0 0 0 0 0 0 0 0 0 0 0 0 0 0 0 0 0 0 0 0 0 0 0 0 0 0 0 0 0 0 0 0 0 0
0 0 0 0 0 0 0 0 0 0 0 0 0 0 0 0 0 0 0 0 0 0 0 0 0 0 0 0 0 0 0 0 0 0 0 0 0 0 0 0 0 0 0
0 0 0 0 0 0 0 0 0 0 0 0 0 0 0 0 0 0 0 0 0 0 0 0 0 0 0 0 0 0 0 0 0 0 0 0 0 0 0 0 0 0 0
0 0 0 0 0 0 0 0 0 0 0 0 0 0 0 0 0 0 0 0 0 0 0 0 0 0 0 0 0 0 0 0 0 0 0 0 0 0 0 0 0 0 0
0 0 0 0 0 0 0 0 0 0 0 0 0 0 0 0 0 0 0 0 0 0 0 0 0 0 0 0 0 0 0 0 0 0 0 0 0 0 0 0 0 0 0
0 0 0 0 0 0 0 0 0 0 0 0 0 0 0 0 0 0 0 0 0 0 0 0 0 0 0 0 0 0 0 0 0 0 0 0 0 0 0 0 0 0 0
0 0 0 0 0 0 0 0 0 0 0 0 0 0 0 0 0 0 0 0 0 0 0 0 0 0 0 0 0 0 0 0 0 0 0 0 0 0 0 0 0 0 0
Wind_Speed
1 1 1 1 1 1 1 1 1 1 1 2 2 2 3 3 3 3 3 3 4 4 4 5 5 5 4 3 3 3 4 4 6 4 3 3 5 5 4 5 5 5 5
1 0 0 0 0 1 1 1 2 1 1 2 2 2 3 3 3 3 3 3 4 4 4 5 5 4 5 4 4 4 4 4 5 6 4 4 5 5 5 5 5 4 5
1 0 0 1 1 1 1 1 2 2 2 2 2 2 3 3 3 3 4 4 5 5 5 5 5 5 5 4 5 4 4 4 4 4 5 4 4 4 5 5 6 5 5
1 1 1 1 1 1 1 1 2 2 2 2 2 3 3 3 3 3 4 4 5 5 5 5 5 5 5 5 5 5 4 4 4 4 5 4 4 4 4 4 5 4 4
1 1 1 1 1 1 1 1 2 2 2 3 3 3 3 3 3 3 4 4 5 5 5 5 5 6 6 6 5 5 5 5 5 5 5 5 4 3 4 4 5 5 5
1 2 2 1 1 1 2 1 1 2 2 3 3 3 3 2 3 4 4 5 5 5 5 4 4 5 6 7 7 8 7 6 6 5 5 6 6 6 5 4 4 5 5
2 2 2 2 2 2 2 2 2 2 3 3 3 3 4 4 4 4 5 5 5 5 5 4 4 3 5 5 6 7 7 8 9 7 7 7 7 6 5 6 6 6 6
2 2 2 2 2 2 2 3 3 3 3 3 4 4 4 4 5 5 6 5 5 5 5 5 5 5 4 5 5 6 6 6 7 7 7 8 7 6 6 7 7 6 6
3 3 3 3 3 3 3 3 3 3 3 4 4 4 5 5 5 5 5 4 4 5 4 4 5 5 6 6 6 6 6 5 6 8 9 9 9 9 7 5 5 5 6
4 3 3 3 3 4 3 3 3 3 3 3 4 4 5 5 6 6 5 3 4 4 4 4 5 6 7 7 6 5 6 6 5 5 6 6 6 6 7 6 5 6 5
3 3 3 3 3 3 3 3 3 3 3 4 4 4 4 5 6 6 6 4 4 4 4 3 4 6 7 8 7 5 7 6 5 5 5 5 4 4 4 5 5 6 6
2 2 3 3 3 3 3 3 3 3 3 4 4 4 3 3 4 5 7 7 6 4 4 4 4 7 8 8 6 6 7 6 4 4 4 5 4 4 4 4 5 6 6
2 3 3 3 3 3 3 3 3 3 3 3 3 4 3 3 4 6 7 7 7 5 4 6 7 8 8 6 6 6 5 4 4 4 5 5 5 5 4 4 4 4 5
3 3 3 3 3 3 3 3 3 3 4 4 4 4 4 3 4 4 4 4 5 5 4 4 6 6 6 5 5 4 4 4 4 5 5 5 4 4 4 4 4 3 4
3 3 3 3 3 3 4 4 5 5 5 5 5 4 4 5 6 7 5 4 4 4 3 3 3 3 3 3 3 3 3 3 4 4 4 4 4 4 4 4 3 4 5
3 3 3 3 3 3 4 4 6 7 8 9 8 7 6 7 8 8 9 8 7 5 3 3 4 4 4 4 4 4 4 4 4 4 4 4 4 4 4 4 4 4 5
4 4 3 3 3 4 4 4 4 5 6 8 8 9 8 8 8 8 8 7 6 4 3 4 4 4 4 4 4 5 5 4 4 4 5 5 4 4 4 4 4 5 5
4 4 4 4 4 4 4 4 4 4 5 4 6 8 8 8 8 8 7 5 4 4 4 4 5 5 5 5 5 5 5 4 4 4 5 5 5 5 5 5 5 6 6
4 3 3 3 3 4 4 4 4 5 5 5 4 5 6 7 7 7 5 4 4 5 5 5 5 5 5 5 5 5 5 5 5 5 5 5 5 5 5 6 6 7 6
3 4 4 3 3 3 3 4 4 4 4 4 5 4 3 3 3 4 4 4 4 5 5 5 5 5 5 5 5 5 5 5 5 5 5 5 5 5 6 7 6 6 6
3 3 3 3 3 3 3 4 4 4 4 5 5 5 6 4 5 5 5 5 5 5 5 5 5 5 5 5 5 6 6 6 5 5 5 5 5 5 6 6 6 6 6
2 3 3 3 3 3 4 4 4 5 5 6 5 5 7 5 5 5 5 5 5 5 5 5 5 5 5 5 5 6 6 6 6 6 6 5 5 6 6 6 6 6 6
2 3 3 3 3 4 4 4 4 5 5 5 5 4 4 5 5 5 6 5 5 5 4 4 5 5 5 5 6 6 7 7 6 6 6 6 6 6 6 6 7 7 7
3 3 3 3 3 3 4 4 4 5 5 5 5 5 5 5 6 6 6 5 5 5 4 4 5 7 8 6 5 6 6 7 7 6 8 7 7 6 6 7 7 8 7
2 3 3 3 3 4 4 4 5 5 5 5 5 5 5 6 6 6 5 5 6 6 6 6 5 6 8 9 8 7 8 9 9 7 7 7 8 8 8 8 7 7 7
3 3 3 3 3 4 4 5 5 5 5 5 5 5 5 6 6 6 5 5 5 6 6 6 7 8 9 8 9 9 9 10 10 9 7 6 7 7 7 6 8 7 7
Wind_Direction
264 229 208 223 236 225 220 224 226 223 214 213 214 208 206 205 209 211 215 221 225 229 229 228 234 236 237 237 237 240 244 249 257 272 279 286 276 273 279 282 288 287 283
307 242 229 247 241 236 244 246 233 226 225 224 222 221 220 217 217 220 225 226 227 230 235 232 233 233 237 240 239 241 245 250 256 267 276 279 278 279 281 281 285 287 286
313 239 226 243 238 241 254 263 245 229 227 230 232 234 234 230 228 228 228 229 232 232 233 234 235 232 237 241 240 242 245 251 255 262 274 282 282 283 286 284 281 279 284
264 236 238 248 247 250 256 258 254 242 234 233 239 239 240 238 232 232 231 234 236 236 236 236 237 236 240 243 243 243 243 245 248 254 263 272 276 284 280 284 285 280 282
255 266 260 276 270 263 262 261 257 249 243 239 240 244 244 243 234 232 239 241 242 242 240 239 240 245 251 252 250 247 245 245 246 252 261 268 270 278 272 278 281 289 287
256 268 269 274 278 268 266 265 266 264 255 244 241 242 244 251 256 251 253 246 245 244 245 245 244 242 247 254 260 260 254 248 248 251 256 260 267 272 277 273 278 288 283
260 269 265 262 269 273 273 268 262 265 262 252 246 245 247 254 259 259 261 258 250 248 247 247 251 251 250 251 257 261 262 260 254 253 256 260 267 270 272 271 268 272 275
263 270 275 263 260 272 270 265 267 268 263 260 256 250 251 255 261 260 260 253 254 251 248 247 247 250 252 257 257 256 258 259 259 256 257 263 268 270 263 264 270 276 283
265 269 273 270 262 261 263 266 270 271 272 271 265 257 256 262 265 266 265 255 255 257 256 253 252 253 257 262 260 260 266 268 271 267 269 271 272 271 267 264 262 264 274
268 275 277 271 264 258 264 272 279 274 272 278 276 268 264 263 267 272 273 260 260 264 262 257 254 261 267 265 259 257 260 268 276 281 278 277 272 267 262 254 252 256 269
289 288 285 279 275 268 270 276 273 272 274 273 272 271 267 266 264 265 268 262 260 263 262 260 260 266 270 267 267 263 265 277 277 274 274 273 272 265 260 262 260 255 257
285 283 284 282 280 276 266 271 269 259 260 263 270 275 272 271 268 267 269 266 270 263 260 262 266 270 271 271 268 272 278 281 273 269 266 265 267 267 269 271 269 265 265
280 276 277 280 275 271 261 261 264 254 251 259 259 266 275 275 272 273 268 266 266 266 264 266 271 270 271 268 266 271 271 263 259 259 260 264 268 270 273 273 273 269 272
264 270 272 271 274 273 265 252 248 246 246 250 255 261 268 269 267 267 265 263 260 263 266 267 268 266 266 270 272 264 259 258 259 260 265 271 272 266 264 266 269 272 273
263 266 267 264 267 271 266 255 250 247 245 251 254 257 260 262 265 274 274 266 262 262 275 271 261 261 259 266 271 269 266 263 262 264 265 268 266 264 267 268 265 267 262
259 265 263 264 266 267 273 278 267 266 271 267 267 266 268 272 278 274 275 277 273 270 272 258 257 257 259 262 264 265 263 260 262 264 261 261 261 262 268 268 268 261 260
260 267 267 262 262 265 268 271 281 286 274 271 269 270 273 277 276 274 275 276 270 252 248 252 254 256 259 260 260 259 260 262 263 258 258 260 259 260 261 262 260 262 259
264 264 261 258 259 261 262 264 264 271 281 280 275 273 276 278 278 279 278 275 262 244 249 251 253 255 257 256 255 256 258 258 255 255 256 257 254 255 256 255 255 259 261
262 261 261 262 258 259 261 262 260 259 263 274 290 289 288 284 281 278 273 252 252 251 251 252 252 253 256 257 258 258 256 254 253 253 252 252 250 250 254 255 254 256 259
262 267 268 263 258 257 257 259 259 259 263 266 270 281 295 286 276 275 262 259 256 255 256 255 254 254 254 254 255 255 254 254 252 250 251 251 250 248 250 253 252 255 256
274 274 266 259 254 254 256 258 261 259 260 264 267 273 278 274 267 268 265 258 257 257 257 257 258 257 255 254 252 251 252 252 251 250 250 249 249 250 251 252 253 251 254
272 270 264 261 262 262 264 265 264 262 263 267 274 278 275 270 264 264 263 262 260 258 258 258 257 255 252 250 250 251 251 251 249 247 247 246 245 245 247 249 249 251 252
272 275 274 271 271 271 268 266 266 266 268 270 273 274 271 266 266 269 271 271 270 266 262 257 258 259 257 254 252 249 250 251 252 249 247 247 246 244 244 245 245 248 251
279 279 280 281 280 279 276 274 271 271 271 273 273 272 270 271 271 272 275 278 278 274 268 261 259 262 264 264 261 257 257 259 259 253 248 247 247 247 245 246 247 247 249
277 280 280 279 280 279 281 282 280 277 274 272 273 273 274 274 275 276 277 276 278 275 271 267 262 260 260 262 263 263 262 262 261 255 248 246 245 245 245 246 244 245 246
278 279 280 279 277 277 278 279 281 282 280 280 278 277 276 276 277 277 276 274 274 274 273 269 266 265 267 266 266 266 265 263 259 254 249 245 242 240 239 239 241 243 246